490  
ASUS42 KTAE 030515  
RWRTAE  
RWRTAE  
NORTH FLORIDA/SOUTH ALABAMA/SOUTHWEST GEORGIA WEATHER ROUNDUP  
NATIONAL WEATHER SERVICE TALLAHASSEE FLORIDA  
1200 AM EST SUN MAR 03 2024  
 
NOTE: "FAIR" INDICATES FEW OR NO CLOUDS BELOW 12,000 FEET WITH NO  
SIGNIFICANT WEATHER AND/OR S TO VISIBILITY
.  
 
!FLZ017-115-028-034-025-030600   
..NORTH FLORIDA
 
 
 
CITY SKY/WX TMP DP RH WIND PRES REMARKS
 
TALL INTL ARPT PTCLDY 64 62 93 CALM 30.11S  
FSU LOVE BLDG N/A 66 61 82 CALM N/A  
APALACHICOLA MOCLDY 64 62 93 S3 30.10S  
PERRY NOT AVBL  
CROSS CITY CLOUDY 63 N/A N/A CALM 30.13R FOG  
JACKSONVILLE CLOUDY 64 62 93 E6 30.12F  

 
 
!FLZ112-006-005-002-011-030600   
..FLORIDA PANHANDLE
 
 
 
CITY SKY/WX TMP DP RH WIND PRES REMARKS
 
MARIANNA MOCLDY 61 61 100 NE3 30.10S  
BONIFAY NOT AVBL  
PANAMA CITY NW FOG 60 59 96 NE5 30.08S VSB 1/2  
TYNDALL AFB MOCLDY 60 59 95 S6 30.09R FOG  
TYND DRONE APT PTCLDY 61 59 94 SE6 30.06 FOG  
DE FUNIAK SPR PTCLDY 64 63 96 E6 30.10S  
EGLIN AFB CLOUDY 64 63 94 SE5 30.09R FOG  
DESTIN CLOUDY 64 63 96 SE6 30.09R FOG  
HURLBURT CLOUDY 65 64 95 SE6 30.08  
CRESTVIEW CLOUDY 64 63 96 E3 30.10R FOG  
PENSACOLA FOG 64 63 96 SE6 30.08R VSB 1/2  

 
 
!ALZ063-066-030600   
..SOUTH ALABAMA
 
 
 
CITY SKY/WX TMP DP RH WIND PRES REMARKS
 
DOTHAN FOG 61 60 97 E7 30.13S VSB 1/4  
OZARK CAIRNS FOG 63 61 94 E6 30.09R VSB 3/4  
FT RUCKER HELI CLOUDY 63 63 100 CALM 30.09 FOG  
RUCKER HELI 3 FOG 63 63 100 SE5 30.08S VSB 7/8  
RUCKER HELI 2 FOG 62 60 92 SE5 30.07 VSB 3/4  
FLORALA APT CLOUDY 65 62 90 E5 30.11S FOG  
ANDALUSIA CLOUDY 63 62 97 E5 30.09  
TROY CLOUDY 63 60 90 SE5 30.11 FOG  
EUFALA CLOUDY 60 57 89 NE3 30.12F  
MOBILE CLOUDY 64 61 90 CALM 30.09R  

 
 
!GAZ120>161-030600   
..SOUTHWEST AND SOUTH CENTRAL GEORGIA
 
 
 
CITY SKY/WX TMP DP RH WIND PRES REMARKS
 
THOMASVILLE CLOUDY 64 63 94 E5 30.13F FOG  
BAINBRIDGE CLOUDY 62 61 96 NE5 30.12S  
MOODY AFB CLOUDY 64 61 88 CALM 30.11  
VALDOSTA CLOUDY 65 63 93 CALM 30.13R  
MOULTRIE CLOUDY 63 63 100 E5 30.14S  
BLAKELY CLOUDY 59 59 100 CALM 30.12S FOG  
ALBANY CLOUDY 60 58 92 NE3 30.15R FOG  
TIFTON CLOUDY 60 60 100 CALM 30.15S  
FITZGERALD CLOUDY 59 58 96 CALM 30.15R VSB 1/4  
CORDELE CLOUDY 58 56 95 CALM 30.16S  
AMERICUS CLOUDY 58 58 100 NE3 30.12F  
HOMERVILLE CLOUDY 61 60 96 CALM 30.13S FOG  

 
 
!GMZ750-755-770-775-030600   
..COASTAL AND BUOY OBS
 
 
 
STATION/POSITION TIME TEMP WIND PRES VSBY WAVE
 
AIR SEA DIR/SP/G HT/PER  
(UTC) (F) (DEG/KT/KT) (MB) (MI) (FT/S)  
KEATON BEACH NOT AVBL  
CEDAR KEY NOT AVBL  
C TOWER 0500 67 1019.7R  
APALACHICOLA BUO 0500 69 60/ 6/ 6 1019.4  
PANAMA CITY BUOY NOT AVBL  
MOBILE BUOY 0500 70 70 120/ 4/ 8 1019.0  
ORANGE BCH AL BU 0500 65 64 160/ 4/ 4 1018.8  

 
 
 
CLICK HERE TO GO TO PREVIOUS BULLETINS.

The Nexlab FL Page
The Nexlab GA Page
The Nexlab AL Page Main Text Page